Regional Weather Roundup
Issued by NWS Grand Forks, ND

Home | Current Version | Previous Version | Text Only | Print | Product List | Glossary Off
Versions: 1 2 3 4 5 6 7 8 9 10 11 12 13 14 15 16 17 18 19 20 21 22 23 24 25 26 27 28 29 30 31 32 33 34 35 36 37 38 39 40 41 42 43 44 45 46 47 48 49 50

000
ASUS43 KFGF 011231
RWRFGF
PRAIRIE TO PINES  WEATHER ROUNDUP
NATIONAL WEATHER SERVICE EASTERN NORTH DAKOTA/GRAND FORKS ND
700 AM CDT SAT OCT 01 2016

 **SATELLITE DATA USED TO AUGMENT SKY COVER AT AUTOMATED STATIONS**
 *****  WEATHER ACROSS EASTERN NORTH DAKOTA  *****

CITY           SKY/WX    TMP DP  RH WIND       PRES   REMARKS
GRAND FORKS    MOCLDY    52  48  86 SE6       30.14F
6HR MIN TEMP:  51; 6HR MAX TEMP:  56; 6HR PCP: TRACE;

GRAND FRKS AFB CLOUDY    51  49  92 SE6       30.14F
GRAND FRKS NWS   N/A     50 N/A N/A SE3         N/A
DEVILS LAKE    PTCLDY    56  49  77 SE12      30.10S
6HR MIN TEMP:  55; 6HR MAX TEMP:  59;

FARGO          MOCLDY    54  49  83 SE10      30.15S
WAHPETON ARPT  PTSUNNY   50  46  87 SE7       30.17S
$$

 ***** WEATHER ACROSS CENTRAL AND WESTERN NORTH DAKOTA  *****

CITY           SKY/WX    TMP DP  RH WIND       PRES   REMARKS
BISMARCK       PTCLDY    51  45  79 SE8       30.02S
6HR MIN TEMP:  51; 6HR MAX TEMP:  61;

MINOT          CLEAR     47  45  93 CALM      30.01S
6HR MIN TEMP:  46; 6HR MAX TEMP:  54;

JAMESTOWN      CLOUDY    51  47  86 SE9       30.09F
6HR MIN TEMP:  51; 6HR MAX TEMP:  57;

MINOT AFB      CLEAR     47  45  92 E5        30.01R
GARRISON         N/A     51  47  86 E3        30.00F
WILLISTON      CLEAR     46  43  89 N3        29.98S
6HR MIN TEMP:  46; 6HR MAX TEMP:  53;

DICKINSON      CLEAR     46  43  89 S8        29.98S
6HR MIN TEMP:  45; 6HR MAX TEMP:  51;

HETTINGER      CLEAR     44  41  89 CALM      30.00S
6HR MIN TEMP:  42; 6HR MAX TEMP:  54;

$$

 *****  OTHER AIRPORT OBSERVATIONS IN OUR AREA  *****

CITY           SKY/WX    TMP DP  RH WIND       PRES   REMARKS
WALHALLA       FAIR      50  50 100 SE8       30.14S
GRAFTON AIRPOR FAIR      50  50 100 CALM      30.17R
VALLEY CITY AR FAIR      48  48 100 SE7       30.15S
CANDO          FAIR      50  50 100 SE9       30.11S
CAVALIER APRT  FAIR      52  48  87 S3        30.14F
GWINNER        FAIR      48  46  93 SE8       30.14S
SHEYENNE NWR     N/A     46  44  94 SE6       29.95
ROLLA            N/A     50  46  87 SE7       30.09F
 ***** THE ABOVE OBSERVATIONS ARE NON NWS ARE NOT QUALITY
       CONTROLLED AND MAY MIS-REPORT RAIN FOR SNOW...
$$

  *****  WEATHER ACROSS NORTHERN MINNESOTA  *****

CITY           SKY/WX    TMP DP  RH WIND       PRES   REMARKS
FLAG ISLAND    MOCLDY    54  48  82 SE13      30.20F
WARROAD        CLOUDY    48  45  87 CALM      30.21S
ROSEAU         CLOUDY    50  45  81 SE3       30.20S
HALLOCK        CLOUDY    55  50  82 SE8       30.16S
THF RVR FALLS  CLOUDY    46  45  96 SE7       30.19S
6HR MIN TEMP:  46; 6HR MAX TEMP:  53;

BAUDETTE       MOCLDY    47  45  93 SE9       30.22F
6HR MIN TEMP:  46; 6HR MAX TEMP:  49;

WASKISH        PTCLDY    43  41  93 CALM      30.22S FOG
CROOKSTON      CLOUDY    48  46  93 SE8       30.17S
STEPHEN NDAWN    N/A     52  48  87 SE2         N/A
GREENBUSH NDAW   N/A     50  48  93 SE5         N/A
$$
  *****  WEATHER ACROSS CENTRAL AND WEST MINNESOTA  *****

CITY           SKY/WX    TMP DP  RH WIND       PRES   REMARKS
FOSSTON        PTCLDY    45  43  93 SE5       30.20R
BEMIDJI        FOG       49  49 100 S3        30.22S VSB 1/4
PARK RAPIDS    FOG       51  49  92 SE5       30.21S VSB 3/4
6HR MIN TEMP:  47; 6HR MAX TEMP:  51;

ELBOW LAKE     CLOUDY    49  49 100 SE6       30.18F FOG
WADENA         FOG       48  48 100 SE5       30.20S VSB 1/2
DETROIT LAKES  CLOUDY    46  46 100 SE6       30.20F FOG
MOORHEAD       MOCLDY    52  48  87 SE8       30.16S
FERGUS FALLS   PTCLDY    50  50 100 E5        30.20S
MORRIS MN      FOG       48  46  93 E6        30.17S VSB<1/4
STAPLES        CLOUDY    50  48  93 CALM      30.21S FOG
$$
  *****  WEATHER ELSEWHERE ACROSS MINNESOTA  *****

CITY           SKY/WX    TMP DP  RH WIND       PRES   REMARKS
DULUTH         MOCLDY    50  49  96 CALM      30.23S
6HR MIN TEMP:  49; 6HR MAX TEMP:  52;

INTRNTL FALLS  PTCLDY    43  42  97 SE6       30.24F
6HR MIN TEMP:  37; 6HR MAX TEMP:  46;

ELY            CLOUDY    48  45  87 CALM      30.25S
CLOQUET        FOG       52  50  93 E3        30.23S VSB 3/4
WHEATON        PTCLDY    43  43 100 E3        30.19S FOG
BRAINERD       FOG       49  49 100 E3        30.22S VSB 1/2
6HR MIN TEMP:  49; 6HR MAX TEMP:  53;

HIBBING        FOG       40  40 100 CALM      30.24S VSB 1/4
6HR MIN TEMP:  36; 6HR MAX TEMP:  40;

ALEXANDRIA     FOG       50  50 100 E8        30.20F VSB 1/4
6HR MIN TEMP:  50; 6HR MAX TEMP:  52;

SAINT CLOUD    CLOUDY    51  51 100 N5        30.19F
6HR MIN TEMP:  51; 6HR MAX TEMP:  53;

MINNEAPOLIS    PTCLDY    53  50  89 NE5       30.18R
6HR MIN TEMP:  52; 6HR MAX TEMP:  60;

$$

  *****  WEATHER ACROSS SOUTH DAKOTA  *****

CITY           SKY/WX    TMP DP  RH WIND       PRES   REMARKS
SIOUX FALLS    CLOUDY    52  49  89 CALM      30.16S
6HR MIN TEMP:  46; 6HR MAX TEMP:  52;

BROOKINGS      CLEAR     46  45  96 CALM      30.16S
WATERTOWN      CLEAR     50  47  89 S5        30.15F
6HR MIN TEMP:  48; 6HR MAX TEMP:  56;

HURON          MOCLDY    48  46  93 SE7       30.12S
6HR MIN TEMP:  47; 6HR MAX TEMP:  52;

SISSETON         N/A     45  43  93 S6        30.16S
ABERDEEN       CLOUDY    50  47  89 SE8       30.10F
6HR MIN TEMP:  50; 6HR MAX TEMP:  56;

MITCHELL       PTCLDY    45  43  93 SE7       30.13S
PIERRE         CLOUDY    59  45  59 SE12      30.01S
6HR MIN TEMP:  59; 6HR MAX TEMP:  61;

MOBRIDGE       PTCLDY    61  46  57 SE16      29.99F
RAPID CITY     CLEAR     45  43  93 CALM      30.00F
6HR MIN TEMP:  45; 6HR MAX TEMP:  55;

$$

  *****  SOME WEATHER IN NEARBY STATES *****

CITY           SKY/WX    TMP DP  RH WIND       PRES   REMARKS
GLASGOW MT     CLEAR     50  47  89 E8        29.95S
6HR MIN TEMP:  49; 6HR MAX TEMP:  58;

GREAT FALLS MT CLOUDY    62  42  47 S10       29.90F
6HR MIN TEMP:  53; 6HR MAX TEMP:  66;

CHEYENNE WY    CLEAR     50  40  68 W10       30.17S
6HR MIN TEMP:  46; 6HR MAX TEMP:  52;

SCOTTSBLUFF NE CLEAR     46  43  89 CALM      30.07S
6HR MIN TEMP:  46; 6HR MAX TEMP:  53;

OMAHA NE       CLOUDY    58  54  86 NW5       30.15R
6HR MIN TEMP:  55; 6HR MAX TEMP:  58;

DES MOINES IA  CLOUDY    60  58  92 N5        30.11S
6HR MIN TEMP:  60; 6HR MAX TEMP:  60; 6HR PCP: TRACE;

DAVENPORT IA   CLOUDY    59  58  96 N5        30.06R
6HR MIN TEMP:  59; 6HR MAX TEMP:  60;

CHICAGO IL     MOCLDY    58  56  93 NW5       30.01F
6HR MIN TEMP:  57; 6HR MAX TEMP:  62;

EAU CLAIRE WI  PTCLDY    51  50  96 NE3       30.16F
6HR MIN TEMP:  50; 6HR MAX TEMP:  58;

LA CROSSE WI   CLOUDY    60  56  86 N5        30.12S
6HR MIN TEMP:  60; 6HR MAX TEMP:  63; 6HR PCP: TRACE;

$$

  *****  SOME NATIONAL WEATHER *****

CITY           SKY/WX    TMP DP  RH WIND       PRES   REMARKS
LA GUARDIA NY  DRIZZLE   58  56  93 NE13      30.22R FOG
6HR MIN TEMP:  58; 6HR MAX TEMP:  59; 6HR PCP: TRACE;

RALEIGH NC     FOG       66  66 100 CALM      30.07R VSB 1/16
6HR MIN TEMP:  66; 6HR MAX TEMP:  72;

ATLANTA GA     CLEAR     56  49  77 NW3       30.08R
6HR MIN TEMP:  55; 6HR MAX TEMP:  59;

NEW ORLEANS LA PTCLDY    67  61  81 CALM      30.07R
6HR MIN TEMP:  67; 6HR MAX TEMP:  71;

OKLAHOMA CITY  CLOUDY    60  53  77 CALM      30.11R
6HR MIN TEMP:  56; 6HR MAX TEMP:  62;

ALBUQUERQUE NM MOCLDY    57  55  93 E7        30.21S
6HR MIN TEMP:  56; 6HR MAX TEMP:  64;

SALT LAKE CITY PTCLDY    61  49  64 SE8       30.05S
6HR MIN TEMP:  61; 6HR MAX TEMP:  67;

LOS ANGELES CA CLEAR     66  60  81 CALM      29.97R
6HR MIN TEMP:  65; 6HR MC1F1C2F2C3F3C4F4C5F5C6F6C7F7C8F8C9F9CaFaCbFbCcFcCd!


USA.gov is the U.S. government's official web portal to all federal, state and local government web resources and services.